Temp_Advection
nan nan nan nan nan nan nan nan nan nan nan nan nan nan nan nan nan nan nan nan nan nan nan nan nan nan nan nan nan nan nan nan nan nan nan nan nan nan nan nan nan nan nan
nan 0 0 0 0 0 -0 -0 -0 -0 -0 0 0 0 -0 -0 -0 -0 -0 -0 -0 -0 -0 -0 0 0 0 0 0 0 0 -0 -0 0 0 0 0 0 0 0 0 0 nan
nan 0 -0 -0 -0 -0 -0 -0 -0 -0 -0 -0 -0 -0 -0 -0 -0 -0 -0 -0 -0 -0 -0 0 -0 -0 -0 0 0 0 0 0 0 0 0 0 0 0 0 0 0 0 nan
nan -0 -0 -0 0 0 0 -0 -0 0 -0 -0 -0 -0 -0 -0 -0 -0 -0 -0 -0 -0 -0 -0 -0 -0 -0 -0 0 0 0 0 0 0 0 0 0 0 0 0 0 0 nan
nan -0 -0 0 0 0 -0 0 0 -0 -0 -0 -0 -0 -0 -0 -0 -0 -0 -0 -0 -0 -0 -0 -0 -0 -0 -0 -0 -0 -0 -0 0 0 0 0 0 0 0 0 0 0 nan
nan -0 0 0 0 -0 0 0 0 -0 -0 -0 0 -0 -0 -0 -0 -0 -0 -0 -0 -0 -0 -0 -0 -0 -0 -0 -0 -0 -0 -0 -0 0 0 0 0 0 0 0 0 0 nan
nan 0 0 -0 -0 1 0 0 0 0 -0 -0 -0 -0 -0 -0 -0 -0 -0 -0 -0 -0 -0 0 0 -0 -0 -0 -0 -0 -0 -0 -0 -0 0 0 0 0 0 0 0 0 nan
nan -0 -0 -0 -0 0 1 0 0 0 -0 -0 0 0 0 -0 -0 -0 -0 -0 -0 -0 -0 -0 -0 -0 -0 -0 -0 -0 -0 -0 -0 -0 -0 0 0 -0 0 0 0 0 nan
nan 0 0 -0 0 1 1 0 0 0 0 0 0 0 0 0 -0 -0 -0 -0 -0 -0 -0 -0 -0 -0 -0 -0 -0 -0 -0 -0 -0 -0 -0 -0 -0 -0 0 0 0 -0 nan
nan 0 0 1 1 1 1 0 0 0 0 0 0 0 0 0 0 0 -0 -0 -0 -0 -0 -0 -0 -0 -0 -0 -0 -0 -0 -0 -0 -0 -0 -0 -0 -0 -0 0 -0 0 nan
nan 1 0 0 1 1 1 0 0 0 0 0 0 0 0 0 0 0 0 0 -0 -0 -0 -0 -0 -0 -0 -0 -0 -0 -0 -0 -0 -0 -0 -0 -0 -0 -0 -0 -0 -0 nan
nan 1 -0 0 1 1 0 0 0 0 0 0 0 0 0 0 0 0 0 0 0 -0 -0 -0 -0 0 -0 -0 -0 -0 -0 -0 0 0 0 0 -0 -0 -0 -0 -0 -0 nan
nan 0 0 1 1 0 0 0 0 0 0 0 0 0 0 0 0 0 0 0 0 0 -0 0 0 -0 -0 -0 -0 -0 -0 -0 -0 0 0 0 -0 -0 -0 -0 -0 0 nan
nan 0 0 0 0 0 0 0 0 0 0 0 0 0 0 0 0 0 0 0 0 0 0 0 0 0 -0 -0 -0 -0 -0 -0 -0 -0 -0 -0 0 0 0 -0 -0 -0 nan
nan 0 0 0 -0 0 0 0 0 0 0 0 0 0 0 0 0 0 0 0 0 0 0 0 0 0 -0 -0 0 0 -0 -0 -0 -0 -0 -0 -0 -0 0 0 0 -0 nan
nan 0 0 0 -0 -0 0 0 0 0 0 0 0 0 0 0 0 0 0 0 0 0 0 0 -0 -0 -0 -0 -0 -0 -0 0 -0 -0 -0 -0 -0 -0 -0 -0 -0 -0 nan
nan 0 0 0 -0 -0 -0 -0 -0 -0 -0 -0 0 -0 0 0 0 0 0 0 0 0 -0 0 -0 -0 -0 -0 -0 -0 -0 -0 -0 -0 -0 -0 -0 -0 -0 -0 -0 -0 nan
nan 0 0 0 -0 -0 -0 0 0 -0 -0 -0 -0 -0 -0 -0 -0 -0 -0 -0 -0 -0 0 0 -0 -0 -0 -0 -0 -0 -0 -0 -0 -0 0 -0 -0 -0 -0 -0 -0 -0 nan
nan 0 0 0 -0 -0 -0 -0 0 0 -0 0 -0 -0 -0 -0 -0 -0 -0 -0 0 -0 -0 0 0 0 0 0 0 0 0 0 0 -0 0 -0 0 0 -0 -0 -0 -0 nan
nan 0 -0 -0 -0 -0 -0 -0 -0 -0 -0 -0 -0 -0 -0 -0 -0 -0 -0 -0 -0 -0 0 -0 -0 -0 -0 -0 0 0 0 0 0 0 0 0 -0 0 0 -0 -0 0 nan
nan -0 -0 -0 -0 -0 -0 -0 -0 -0 -0 -0 -0 -0 -0 -0 -0 -0 -0 -0 -0 0 0 0 0 0 0 0 -0 0 0 0 0 0 0 0 0 -0 -0 -0 0 0 nan
nan -0 -0 -0 -0 -0 -0 0 0 0 -0 0 0 0 0 -0 0 0 -0 -0 0 0 0 0 0 0 0 0 0 0 0 0 0 0 0 0 0 0 0 0 -0 0 nan
nan -0 -0 -0 0 0 0 0 0 -0 0 0 0 0 0 0 0 0 0 0 -0 -0 0 0 0 0 0 0 0 0 0 0 0 0 0 0 0 0 0 0 0 0 nan
nan -0 -0 0 0 0 0 0 -0 0 0 0 0 0 0 0 0 0 0 0 0 0 -0 0 1 0 0 0 0 0 0 0 -0 -0 -0 -0 0 0 0 -0 -0 -0 nan
nan -0 0 0 0 0 0 0 0 0 0 0 0 0 0 0 0 0 0 0 0 0 0 0 0 0 0 0 0 0 -0 0 0 -0 -0 -0 -0 -0 -0 0 0 0 nan
nan nan nan nan nan nan nan nan nan nan nan nan nan nan nan nan nan nan nan nan nan nan nan nan nan nan nan nan nan nan nan nan nan nan nan nan nan nan nan nan nan nan nan
Wind_Speed
8 6 7 5 4 4 6 4 5 7 9 10 11 10 9 8 8 7 7 6 5 4 5 5 3 3 2 5 8 10 8 12 14 12 12 9 8 7 7 8 10 9 7
9 8 9 5 3 4 5 6 6 8 9 10 11 11 11 10 9 8 8 9 8 8 8 5 3 3 3 3 4 7 7 8 11 14 12 8 8 8 7 8 8 7 6
10 9 9 5 2 1 4 6 6 7 8 10 10 12 12 11 12 12 10 10 10 9 8 7 7 6 4 2 3 4 5 7 9 11 13 10 10 9 7 9 6 3 2
13 9 8 7 8 3 1 3 3 5 6 7 8 10 11 10 11 11 11 11 10 10 10 10 10 9 8 8 7 5 3 1 4 7 9 11 10 9 8 6 4 2 2
15 9 8 12 11 7 3 1 2 3 3 5 6 7 8 8 10 10 10 11 12 12 12 12 11 12 11 11 9 10 9 6 4 6 7 9 10 9 7 5 4 4 3
11 8 10 15 15 11 4 1 1 2 3 4 5 5 5 6 10 11 11 11 11 11 11 12 11 11 11 10 9 9 9 9 7 6 4 4 4 5 5 6 5 3 6
14 9 10 17 18 14 6 5 2 3 4 3 3 2 2 4 7 9 10 10 10 10 11 12 11 12 12 11 10 8 7 6 6 6 3 2 3 4 5 6 6 4 5
11 14 16 19 20 17 11 7 8 6 4 5 4 2 2 1 4 7 9 10 8 8 8 9 10 11 11 11 9 7 6 6 6 5 3 4 2 3 4 4 5 5 5
10 15 16 17 19 18 12 9 12 9 4 4 3 4 5 2 1 3 6 9 7 6 6 6 6 7 8 9 8 7 5 5 7 6 6 7 6 4 3 2 2 3 5
16 19 21 21 19 17 12 13 12 14 8 4 3 4 5 5 3 1 2 5 6 7 7 5 4 4 3 5 6 5 3 4 5 5 5 5 7 11 7 6 7 7 9
24 24 19 15 13 14 14 15 13 12 8 5 4 3 6 7 7 5 3 1 2 3 5 7 5 5 5 5 3 3 2 2 3 4 4 5 9 13 10 5 6 7 7
22 18 12 10 9 10 14 15 14 5 5 8 7 5 7 8 8 8 4 5 5 3 4 6 5 4 2 2 3 3 3 5 6 6 4 3 7 7 7 5 5 4 1
16 11 8 11 12 12 13 13 13 9 8 10 11 6 5 7 9 8 7 7 8 4 5 2 0 1 2 3 3 4 6 5 1 2 1 2 4 4 5 4 4 3 3
9 10 10 11 11 13 14 12 11 9 9 10 9 8 7 7 7 7 7 8 6 3 3 2 4 5 3 3 4 6 7 4 3 3 4 6 6 5 4 6 7 6 7
7 9 9 9 10 11 11 12 11 11 10 9 8 7 6 6 5 5 4 4 3 4 6 6 4 1 3 3 4 4 4 4 5 6 6 8 9 9 8 7 7 7 7
8 8 8 8 9 9 8 9 9 8 7 7 6 5 4 4 5 5 4 4 5 7 6 4 1 2 6 6 6 7 8 7 6 7 9 12 11 9 9 8 10 9 7
10 11 12 12 11 9 9 7 5 7 6 5 6 6 5 4 4 5 4 5 7 7 4 3 3 3 6 7 9 8 7 7 9 11 11 10 8 8 10 10 9 8 9
15 15 16 17 16 14 12 12 14 15 13 10 6 4 4 4 4 4 4 6 6 6 3 3 0 3 5 6 9 9 7 9 12 12 9 9 9 12 12 8 8 8 9
17 16 15 15 14 12 13 15 16 18 18 17 16 13 10 6 4 4 7 10 6 3 2 1 2 5 5 7 8 8 8 10 12 13 9 7 9 13 10 9 9 10 10
16 15 14 14 13 12 12 15 15 14 12 11 12 12 10 8 8 8 8 7 5 2 1 1 3 5 6 7 9 11 11 10 10 10 12 10 8 11 10 10 11 12 11
17 16 16 14 12 9 9 8 7 6 6 4 4 5 5 5 4 4 4 4 3 3 4 5 5 6 8 9 9 10 10 9 10 11 11 11 10 12 12 14 15 14 14
15 18 17 14 13 10 8 5 3 3 5 5 6 7 5 3 4 5 5 5 6 9 12 13 12 11 10 10 10 13 13 12 12 12 12 12 13 14 15 15 16 16 17
18 16 13 14 12 9 11 9 7 3 3 4 6 10 11 8 6 6 8 8 9 10 11 12 13 13 14 15 15 16 17 18 19 20 21 19 18 19 20 21 20 19 19
20 17 17 18 14 11 10 11 8 6 5 5 5 9 10 12 13 14 13 12 12 14 14 15 16 17 18 19 19 19 20 22 22 21 22 24 26 27 25 24 24 24 23
17 16 17 16 17 13 12 10 9 10 8 6 6 9 12 10 10 11 11 10 11 12 13 14 15 15 16 19 21 21 23 23 22 23 25 27 27 28 29 30 32 30 28
15 18 19 17 14 13 11 8 11 10 6 4 4 8 11 9 8 8 7 8 8 10 11 13 15 17 19 20 21 23 24 26 28 29 29 30 30 31 31 29 29 31 29
Wind_Direction
171 177 199 158 80 39 27 27 46 44 50 42 36 39 43 47 49 54 57 56 49 60 75 76 98 119 178 204 219 228 244 208 214 221 221 223 228 249 267 270 278 285 296
189 183 209 181 80 28 40 56 60 49 51 49 44 44 56 59 60 63 62 62 58 55 54 53 82 99 102 145 202 222 229 228 232 230 220 231 231 255 261 273 254 245 244
186 198 218 210 203 48 56 53 55 51 49 50 52 51 57 64 65 69 68 67 64 63 60 58 65 66 76 104 199 210 216 223 230 240 218 213 228 240 239 238 227 219 249
193 204 223 227 236 213 100 35 25 41 44 46 49 55 61 63 64 65 64 62 62 64 63 67 74 76 68 65 67 81 91 184 218 212 211 213 214 233 226 218 222 225 293
186 193 211 237 240 238 278 258 325 4 23 34 40 50 58 59 68 60 56 57 60 60 62 62 63 64 67 69 68 73 68 70 134 175 193 207 215 198 203 240 238 268 265
184 171 209 244 258 250 255 192 323 317 339 8 18 39 48 52 60 59 54 53 58 62 67 64 66 70 68 64 62 63 71 74 87 119 141 176 198 225 261 270 260 272 307
204 202 229 265 260 260 236 167 244 266 313 323 336 352 46 65 70 64 51 46 51 59 65 64 64 69 71 67 66 67 72 73 80 113 130 195 250 270 279 269 235 271 304
217 236 241 246 253 263 250 209 226 235 284 308 294 279 278 84 80 66 47 37 39 50 61 61 60 60 62 57 52 58 69 82 93 107 136 144 209 269 278 249 246 259 241
225 261 260 260 261 257 247 227 236 241 237 259 274 243 240 228 88 66 43 35 41 52 44 46 50 47 49 49 34 39 58 69 87 88 90 82 57 11 311 278 255 258 255
232 251 250 255 249 255 241 232 234 233 210 227 281 241 239 244 254 269 16 35 49 55 47 38 21 24 32 31 21 26 28 61 79 79 72 55 30 16 359 271 263 271 255
233 253 254 261 249 233 211 219 216 227 211 236 241 289 256 247 249 246 235 236 350 3 24 11 350 336 331 338 347 347 292 302 324 336 341 358 4 3 0 341 284 266 255
225 235 250 249 228 197 194 199 233 223 234 255 238 276 271 254 249 253 232 220 247 272 329 327 333 327 317 312 327 330 298 298 294 280 272 298 357 9 8 18 30 30 282
225 223 215 215 196 186 185 199 206 216 234 242 232 259 281 271 261 258 242 226 227 238 285 257 222 87 98 61 15 344 335 339 326 187 238 313 335 352 357 336 310 290 276
204 197 197 191 179 179 184 196 211 211 221 231 232 269 270 266 250 243 242 234 228 209 197 157 131 126 117 76 33 32 35 34 1 322 316 311 294 281 296 317 316 289 283
218 205 189 179 167 169 182 193 205 217 215 232 250 265 261 248 235 217 196 178 183 188 156 158 155 134 31 344 320 325 334 338 337 337 331 332 322 300 282 277 296 290 280
194 173 161 156 150 161 183 201 201 213 224 226 239 248 224 220 212 202 192 179 172 167 166 174 179 73 21 6 347 334 328 298 301 305 313 322 317 310 299 291 281 271 285
164 152 145 134 131 141 139 136 169 170 172 172 178 191 207 204 209 196 183 173 175 178 183 145 129 62 21 9 7 4 357 344 325 317 316 313 313 318 316 303 297 287 286
146 142 131 123 115 113 110 106 110 104 105 103 110 136 148 159 169 166 164 162 160 168 158 152 130 359 351 354 358 3 4 355 359 349 319 291 297 300 305 305 313 316 296
148 142 138 131 123 120 117 110 112 106 97 87 86 89 91 98 122 145 150 136 127 144 173 219 339 331 319 329 342 347 340 337 344 355 346 334 313 327 291 298 303 331 309
160 160 154 146 143 139 132 125 121 117 109 100 91 84 81 87 96 103 142 172 161 184 287 67 9 10 13 14 5 352 330 324 326 341 348 326 312 321 305 298 304 295 309
172 175 167 167 164 154 144 131 124 122 117 129 140 119 103 111 135 143 154 165 198 232 261 277 296 324 350 344 348 350 346 344 340 334 331 337 319 306 311 302 296 297 300
177 174 181 183 177 170 166 165 207 295 248 262 249 235 213 195 191 205 219 222 243 258 259 260 269 281 291 287 296 306 320 319 314 313 309 308 307 310 318 311 306 299 297
180 188 202 202 186 178 197 204 200 212 189 210 238 239 241 225 224 235 243 251 254 261 265 277 253 263 275 269 275 283 289 302 305 308 305 299 298 300 297 295 298 302 301
187 195 198 195 196 201 194 188 208 228 224 235 240 219 217 223 238 249 253 262 268 285 284 273 251 262 268 267 274 284 285 296 298 294 294 290 290 296 293 288 294 290 287
201 197 200 204 203 210 212 221 239 245 239 254 251 240 222 239 261 262 261 268 283 282 270 262 271 275 270 274 280 285 288 292 288 288 292 291 290 290 287 289 287 289 278
200 206 203 200 209 212 207 243 246 226 257 278 285 259 253 233 227 234 245 257 264 274 281 285 284 282 280 281 284 288 290 293 295 295 293 292 290 289 289 287 286 288 285
Height
1540 1540 1546 1545 1543 1543 1541 1541 1541 1540 1538 1536 1535 1532 1531 1530 1529 1528 1527 1526 1525 1524 1523 1522 1522 1522 1523 1524 1525 1526 1528 1528 1530 1532 1534 1535 1537 1538 1539 1538 1538 1537 1536
1541 1541 1546 1544 1544 1544 1543 1542 1542 1541 1540 1538 1536 1534 1533 1532 1532 1531 1529 1528 1527 1526 1525 1525 1524 1523 1524 1524 1525 1526 1527 1528 1529 1530 1532 1535 1536 1537 1538 1538 1537 1537 1536
1540 1543 1545 1545 1545 1545 1544 1543 1543 1543 1542 1540 1539 1537 1535 1535 1534 1533 1532 1531 1529 1529 1528 1527 1526 1525 1525 1525 1526 1526 1527 1527 1528 1529 1530 1533 1535 1535 1536 1537 1536 1536 1536
1537 1542 1544 1546 1545 1545 1545 1545 1545 1544 1543 1542 1541 1540 1538 1538 1537 1536 1535 1534 1533 1531 1531 1530 1528 1527 1527 1527 1527 1526 1526 1526 1527 1529 1531 1532 1534 1535 1535 1536 1536 1536 1536
1534 1538 1543 1546 1545 1545 1546 1545 1545 1545 1545 1544 1543 1541 1541 1540 1539 1539 1538 1537 1535 1534 1533 1532 1531 1530 1529 1529 1529 1528 1528 1528 1528 1530 1531 1533 1533 1534 1535 1536 1536 1536 1536
1538 1539 1542 1543 1544 1544 1545 1546 1546 1546 1546 1544 1544 1543 1543 1543 1541 1540 1540 1539 1538 1537 1536 1536 1535 1534 1533 1532 1531 1531 1530 1530 1531 1532 1533 1534 1535 1536 1536 1535 1536 1536 1537
1539 1540 1544 1543 1542 1543 1545 1545 1545 1546 1546 1545 1544 1544 1544 1544 1543 1543 1543 1542 1541 1540 1540 1539 1538 1537 1536 1535 1534 1534 1533 1533 1533 1533 1535 1536 1537 1537 1537 1536 1536 1536 1536
1539 1540 1542 1542 1541 1543 1543 1543 1544 1545 1545 1546 1544 1544 1544 1545 1544 1545 1544 1544 1543 1542 1541 1541 1541 1540 1539 1538 1538 1536 1536 1535 1535 1535 1535 1536 1537 1537 1537 1537 1536 1536 1537
1533 1536 1539 1541 1540 1539 1540 1543 1543 1544 1544 1545 1545 1544 1544 1545 1545 1546 1546 1545 1544 1544 1543 1543 1543 1543 1542 1541 1541 1539 1538 1537 1537 1538 1538 1538 1539 1538 1538 1537 1537 1537 1537
1528 1533 1535 1537 1536 1537 1539 1541 1542 1543 1542 1542 1545 1545 1545 1545 1545 1546 1546 1547 1547 1545 1545 1545 1545 1544 1544 1543 1543 1542 1541 1541 1540 1540 1540 1540 1540 1539 1538 1537 1537 1536 1536
1526 1531 1532 1531 1533 1534 1536 1538 1541 1542 1542 1542 1543 1545 1545 1544 1545 1546 1546 1547 1547 1547 1546 1546 1546 1545 1545 1544 1544 1544 1543 1543 1543 1543 1542 1541 1540 1539 1537 1536 1535 1534 1534
1525 1527 1528 1529 1531 1531 1533 1536 1539 1540 1541 1542 1543 1544 1544 1544 1544 1544 1545 1546 1546 1547 1547 1546 1546 1546 1545 1545 1544 1544 1544 1544 1543 1543 1542 1542 1541 1539 1538 1537 1536 1535 1534
1524 1526 1525 1527 1530 1532 1532 1535 1536 1538 1540 1541 1542 1542 1543 1543 1542 1543 1543 1544 1545 1545 1546 1546 1546 1547 1546 1546 1546 1545 1545 1544 1543 1543 1543 1542 1541 1540 1539 1538 1537 1536 1536
1525 1525 1524 1526 1527 1529 1531 1534 1536 1536 1538 1540 1540 1541 1542 1542 1542 1542 1542 1543 1543 1545 1546 1547 1548 1548 1548 1548 1548 1547 1546 1545 1545 1544 1543 1542 1541 1540 1539 1538 1537 1536 1535
1523 1525 1525 1525 1526 1529 1531 1533 1534 1535 1536 1537 1538 1539 1540 1541 1541 1542 1541 1542 1543 1544 1546 1547 1549 1549 1549 1549 1549 1548 1547 1545 1544 1544 1543 1542 1541 1539 1538 1537 1536 1535 1534
1525 1525 1525 1526 1526 1529 1532 1533 1533 1534 1535 1536 1537 1539 1539 1541 1541 1541 1541 1542 1543 1545 1546 1548 1548 1549 1549 1549 1548 1547 1546 1545 1544 1543 1542 1541 1540 1539 1537 1536 1534 1533 1532
1526 1526 1527 1526 1528 1531 1533 1533 1533 1533 1535 1535 1537 1538 1539 1540 1541 1541 1541 1542 1543 1545 1546 1547 1549 1549 1549 1549 1547 1545 1545 1544 1543 1541 1540 1539 1537 1537 1536 1534 1533 1531 1530
1526 1529 1529 1530 1530 1534 1536 1535 1534 1534 1535 1536 1537 1538 1539 1540 1541 1541 1541 1542 1544 1546 1547 1548 1549 1549 1549 1548 1546 1545 1544 1543 1541 1539 1537 1536 1535 1534 1533 1532 1531 1530 1529
1527 1529 1531 1532 1534 1537 1538 1537 1537 1537 1538 1538 1538 1539 1539 1541 1541 1542 1543 1544 1545 1546 1547 1548 1548 1548 1548 1547 1545 1544 1543 1542 1540 1538 1536 1534 1533 1531 1530 1530 1529 1528 1527
1527 1530 1532 1533 1536 1539 1539 1538 1538 1539 1540 1541 1541 1541 1541 1542 1543 1543 1544 1545 1546 1547 1548 1548 1547 1547 1546 1545 1543 1542 1541 1540 1538 1537 1535 1533 1531 1530 1528 1528 1527 1526 1525
1526 1529 1532 1535 1538 1540 1540 1540 1540 1539 1539 1541 1543 1543 1543 1544 1544 1544 1546 1546 1547 1547 1547 1547 1546 1546 1545 1543 1542 1540 1539 1538 1536 1535 1533 1531 1529 1528 1526 1525 1524 1523 1521
1526 1529 1533 1536 1536 1538 1539 1540 1540 1539 1539 1540 1542 1543 1543 1543 1544 1545 1545 1545 1545 1544 1544 1544 1544 1543 1542 1540 1539 1538 1536 1535 1534 1532 1530 1528 1527 1525 1523 1522 1520 1519 1517
1527 1530 1533 1534 1536 1537 1537 1538 1538 1538 1538 1539 1540 1540 1541 1542 1542 1543 1543 1542 1542 1541 1541 1540 1539 1539 1538 1536 1535 1534 1533 1532 1530 1528 1526 1524 1522 1520 1518 1517 1515 1513 1512
1525 1529 1531 1533 1535 1536 1536 1535 1536 1536 1536 1536 1537 1537 1537 1538 1539 1539 1540 1540 1539 1538 1536 1536 1535 1534 1533 1532 1531 1529 1528 1527 1525 1523 1520 1518 1516 1514 1512 1510 1509 1507 1506
1524 1527 1529 1531 1533 1534 1534 1534 1534 1534 1534 1533 1533 1533 1534 1535 1537 1537 1536 1536 1535 1534 1533 1533 1532 1531 1530 1528 1526 1525 1523 1521 1518 1516 1513 1511 1508 1506 1504 1502 1501 1499 1498
1523 1525 1527 1530 1531 1531 1532 1532 1532 1532 1532 1532 1532 1533 1533 1533 1534 1534 1534 1533 1533 1532 1531 1530 1529 1527 1525 1523 1521 1519 1517 1514 1511 1508 1505 1502 1500 1498 1496 1494 1492 1490 1488